Tracking 28794 objects as of 19-Apr-2024
HD Live streaming from Space Station
objects crossing your sky now

COSMOS 2251 DEB

Track COSMOS 2251 DEB now!
10-day predictions


NORAD ID: 34626
Int'l Code: 1993-036WX
Perigee: 671.8 km
Apogee: 722.2 km
Inclination: 74.1 °
Period: 98.6 minutes
Semi major axis: 7068 km
RCS: 0.027 m2 (small)
Launch date: June 16, 1993
Source: Commonwealth of Independent States (former USSR) (CIS)
Launch site: PLESETSK MISSILE AND SPACE COMPLEX (PKMTR)

Note: This is SATELLITE DEBRIS
Your satellite tracking list
Your tracking list is empty




NASA's NSSDC Master Catalog

Two Line Element Set (TLE):
1 34626U 93036WX  24110.23653597  .00013044  00000-0  26357-2 0  9997
2 34626  74.0565  45.7663 0035662 289.9809 195.9345 14.61015244803081
Source of the keplerian elements: AFSPC